Location: Kitt Peak
(31.9639°N, 111.5992°W)
Time: 15:04:09
(UTC-07:00)

Hubble Space Telescope - Pass Details

Date: 03 June 2024
Orbit: 510 x 514 km, 28.5° (Epoch: 23 June)

Event Time Altitude Azimuth Distance (km) Brightness Sun altitude
Rises 21:27:21 0° 263° (W) 2,610 4.8 -21.0°
Reaches altitude 10° 21:30:13 10° 242° (WSW) 1,721 3.5 -21.4°
Enters shadow 21:31:39 15° 222° (SW) 1,440 2.9 -21.6°
